Vertical_Velocity
-1 -0 -1 -1 -0 -2 -3 -1 -3 -1 -3 3 -3 -1 -1 -4 -3 0 0 -1 -2 -1 -1 -0 -1 -2 -1 -1 0 0 -1 -1 -1 1 0 1 1 1 1 0 0 0 -0
-2 -1 -1 -1 0 -0 -2 -2 -6 3 -4 -1 1 -0 0 -2 -1 -1 1 0 -1 -1 -1 -1 0 -0 0 1 -0 -1 -2 -1 -1 0 -1 -0 -0 2 1 2 1 0 0
-2 -0 -0 -2 -1 -2 1 -2 -0 -1 0 -4 2 -1 -1 0 -2 -2 -1 -1 -1 -0 0 -0 -1 -0 -1 -0 -1 -0 -3 -3 -3 -3 -2 -1 -1 -1 -1 -1 1 0 1
-1 1 -0 -2 -2 -2 1 -0 -1 -1 -1 -2 1 -2 -3 -1 -1 -2 -1 -1 -0 -1 -1 -1 -2 -1 -1 -1 -0 -0 0 -2 -3 -3 -2 -2 -2 -2 -1 -2 -1 -0 0
1 -1 -2 -3 1 -2 -0 -2 -1 1 -2 1 -1 -2 -2 -1 -0 -1 -2 -2 -2 -1 -0 0 -1 -1 0 0 1 0 0 0 1 -1 -2 -1 -0 -0 -1 -1 -1 -1 -1
-1 -1 -2 -1 -0 1 -0 -2 -0 -1 -1 1 0 -1 0 0 -1 -1 -2 -3 -2 -2 -1 0 1 0 0 -1 -0 -0 -1 0 0 0 0 0 -0 0 0 -0 -2 -1 -2
0 -0 -2 -1 1 0 -2 -1 -0 -2 -0 -1 -1 -1 0 -1 -1 -2 -1 -2 -2 -1 -1 -1 0 -0 -1 -1 -2 -1 -0 -1 -0 1 1 0 0 1 -1 1 0 -0 -2
6 6 4 -1 2 1 -0 3 -1 -2 -0 -2 -1 -0 1 0 -3 -1 -0 -1 -2 -3 -2 -1 -1 -1 -0 -1 -1 -1 -1 -2 -2 -2 -1 0 1 1 0 0 1 1 0
5 8 0 0 -3 1 3 0 0 -0 -1 -1 -2 -0 1 0 -1 -3 -0 -1 -2 -2 -2 -1 -1 -1 -2 -1 -2 -1 -1 -2 -2 -2 -3 -2 -2 -0 0 0 0 1 1
3 2 3 2 -0 2 -0 0 8 7 4 -0 -4 -5 -1 1 -2 3 -2 0 -1 -2 -0 1 0 0 -1 -2 -1 -0 0 -0 -1 -2 -3 -3 -3 -2 -2 -1 -2 -2 -2
1 2 -0 4 -1 -1 2 1 1 0 3 3 6 -1 -3 -4 -0 -2 5 0 -1 -1 -1 0 -1 -0 -1 -3 -2 -2 -1 0 -1 -0 -2 -3 -4 -4 -2 -2 -2 -3 -2
1 2 3 -3 4 3 3 2 0 1 2 2 1 1 1 -1 1 -2 -2 2 2 2 -0 -1 -2 -1 -1 -2 -1 2 -2 -1 0 -2 -2 -2 -2 -1 -3 -3 -2 -1 -1
4 5 2 3 -1 1 2 5 2 3 0 2 -1 2 -1 0 -1 -4 -8 -3 -2 0 1 0 -1 -2 -3 -2 -3 -2 -2 -3 -1 -2 -1 -1 -3 -4 -3 -4 -1 -1 -1
5 1 2 2 5 2 0 1 2 2 -2 3 -1 1 0 -1 5 -2 0 -1 -1 -3 4 -7 -0 -2 -4 -3 -5 -4 -4 -5 -3 -4 -2 -4 -3 -5 -2 -2 -1 -1 -0
9 5 3 4 5 4 3 -2 3 -2 -2 1 2 -1 -2 17 12 -4 -3 1 -0 1 3 3 -2 -3 -7 -2 -5 -5 -3 -3 -3 -3 -2 -2 -3 -5 -4 -2 -3 -2 -1
3 6 3 5 4 5 5 -1 1 -2 1 1 1 -2 -4 -3 -2 -1 3 2 3 -1 -4 4 3 -3 -2 -2 -1 -4 -5 -5 -2 -2 -3 -1 -5 -5 -3 -2 -1 -0 -2
5 6 11 10 2 5 2 2 -1 1 3 1 -0 -2 -5 2 2 1 5 6 17 10 4 2 3 3 5 2 -1 -3 -4 -1 2 -0 -1 -3 -7 -5 -2 -4 -3 -2 -1
2 -1 1 11 3 5 2 -1 3 2 3 1 -1 -3 3 -1 4 0 4 -5 13 22 -2 -1 4 3 6 0 -4 -2 -2 -1 -3 0 4 -3 -5 -2 -2 -3 -3 -3 -1
3 -0 1 4 3 -2 0 -2 -0 3 3 0 -1 1 4 2 -0 1 1 12 13 1 2 1 6 3 1 -2 2 -0 -2 3 -1 -1 1 -8 -3 1 -1 -2 -4 -4 -2
2 4 0 -2 1 1 -0 1 3 2 0 1 14 2 2 2 -1 2 3 9 12 6 6 4 -1 -1 -1 2 -1 -5 4 -0 4 5 1 -9 -1 2 -1 -6 -3 -1 -3
3 1 2 2 0 1 1 6 0 -2 1 15 -2 2 0 0 4 9 6 7 4 4 2 -2 -1 -3 0 -0 -4 -1 -2 -3 8 3 1 1 3 -1 -7 -10 -3 -5 -3
2 4 1 1 -0 1 3 -1 -2 -1 5 3 -2 1 19 21 0 9 8 6 8 10 -0 -5 3 2 -1 -1 -1 -2 -5 -2 2 17 -5 11 -5 -0 2 6 1 -2 -4
-1 1 0 -0 1 -1 -4 -4 -2 10 -2 3 4 5 1 1 10 7 2 -5 2 2 -8 -4 6 -2 -2 1 1 7 4 -4 1 1 -15 10 -7 12 -4 2 -2 -1 -1
3 1 1 2 -2 -1 -3 23 -2 3 11 6 8 4 7 1 1 0 -2 1 1 -3 -0 -0 -4 -2 -5 -5 -6 -4 -3 0 3 1 -7 -1 -4 4 4 10 1 2 -0
1 3 -4 -3 3 10 5 3 7 10 8 5 4 6 5 2 -2 -2 2 -1 3 2 4 4 -1 -7 -4 -1 -6 -1 -3 -4 1 6 -6 -14 5 -0 1 12 5 5 -6
2 1 6 13 11 3 5 14 10 1 -2 3 -1 -5 -2 4 3 1 -1 2 3 2 1 2 -4 -4 -3 -3 -4 -5 -3 -1 -5 17 -16 6 8 -18 10 4 4 -1 -5
Height
5823 5823 5823 5823 5823 5824 5824 5823 5823 5823 5823 5822 5821 5820 5820 5819 5818 5817 5817 5816 5815 5814 5814 5813 5812 5811 5810 5809 5808 5808 5807 5806 5805 5805 5805 5804 5805 5805 5805 5805 5805 5805 5805
5817 5817 5817 5816 5816 5818 5818 5818 5818 5817 5817 5817 5815 5815 5814 5813 5812 5811 5810 5809 5809 5808 5807 5806 5805 5804 5803 5802 5801 5801 5800 5799 5798 5798 5797 5797 5797 5797 5797 5798 5798 5797 5797
5811 5811 5811 5810 5809 5811 5811 5811 5811 5811 5811 5810 5809 5809 5808 5807 5806 5805 5804 5803 5802 5801 5800 5799 5798 5797 5796 5795 5794 5794 5793 5792 5791 5791 5790 5790 5790 5789 5790 5789 5789 5789 5789
5804 5804 5805 5804 5804 5804 5804 5804 5804 5805 5805 5804 5804 5803 5802 5801 5801 5799 5798 5797 5796 5794 5793 5792 5791 5790 5789 5788 5787 5786 5785 5784 5782 5782 5782 5781 5781 5780 5780 5780 5780 5779 5779
5798 5798 5797 5796 5797 5797 5797 5798 5798 5798 5798 5798 5797 5797 5796 5795 5794 5793 5792 5790 5789 5787 5786 5784 5783 5782 5781 5780 5779 5778 5776 5775 5774 5772 5771 5771 5770 5769 5769 5769 5768 5768 5767
5791 5790 5790 5789 5790 5791 5791 5791 5792 5791 5792 5791 5791 5791 5790 5789 5788 5786 5784 5783 5782 5780 5779 5777 5775 5774 5773 5771 5770 5769 5767 5766 5764 5763 5761 5760 5759 5758 5757 5757 5756 5756 5756
5784 5784 5782 5782 5783 5785 5784 5785 5785 5784 5784 5783 5784 5783 5783 5782 5780 5779 5777 5776 5774 5773 5771 5769 5767 5766 5764 5763 5761 5760 5758 5756 5754 5753 5751 5750 5748 5747 5745 5744 5743 5743 5742
5775 5775 5775 5774 5774 5775 5777 5777 5777 5777 5777 5776 5775 5775 5775 5774 5772 5771 5769 5768 5766 5765 5763 5761 5759 5757 5755 5753 5751 5750 5748 5746 5744 5742 5740 5738 5737 5735 5734 5732 5731 5730 5729
5765 5765 5765 5765 5766 5767 5769 5768 5768 5768 5768 5767 5767 5767 5766 5765 5763 5762 5760 5759 5758 5756 5754 5752 5750 5748 5746 5743 5741 5739 5737 5735 5733 5730 5728 5726 5724 5723 5721 5720 5718 5717 5716
5754 5755 5757 5757 5758 5759 5760 5761 5760 5759 5758 5758 5757 5758 5757 5756 5755 5754 5752 5750 5748 5746 5744 5742 5740 5738 5735 5733 5730 5728 5726 5724 5722 5719 5716 5714 5712 5710 5708 5706 5704 5703 5702
5744 5746 5747 5747 5748 5749 5751 5751 5752 5752 5750 5749 5748 5748 5748 5746 5746 5745 5743 5741 5739 5736 5734 5731 5729 5726 5723 5721 5718 5716 5714 5712 5709 5707 5704 5702 5699 5697 5694 5691 5689 5687 5686
5732 5734 5736 5737 5738 5738 5741 5742 5741 5741 5741 5740 5739 5738 5738 5736 5735 5733 5732 5730 5728 5726 5724 5720 5717 5715 5712 5708 5706 5703 5700 5697 5694 5691 5688 5686 5683 5680 5678 5675 5672 5670 5668
5720 5722 5723 5726 5728 5727 5728 5731 5731 5731 5731 5731 5729 5728 5727 5725 5724 5721 5719 5718 5716 5714 5711 5709 5705 5702 5698 5695 5691 5688 5685 5682 5679 5675 5672 5668 5665 5663 5660 5657 5654 5651 5649
5706 5707 5710 5712 5714 5715 5717 5718 5719 5720 5719 5719 5719 5717 5716 5715 5712 5711 5709 5706 5703 5700 5697 5694 5691 5687 5683 5680 5676 5673 5670 5667 5663 5658 5654 5650 5647 5643 5640 5637 5634 5631 5628
5690 5693 5696 5699 5702 5703 5705 5706 5708 5709 5708 5708 5707 5706 5706 5702 5699 5698 5695 5693 5689 5688 5684 5680 5677 5672 5669 5665 5661 5658 5654 5649 5646 5641 5636 5632 5628 5624 5619 5616 5612 5609 5606
5677 5680 5684 5688 5689 5691 5692 5692 5694 5695 5695 5696 5696 5695 5694 5693 5690 5685 5682 5680 5674 5672 5670 5667 5663 5658 5655 5650 5645 5640 5635 5630 5626 5621 5616 5611 5607 5603 5598 5594 5590 5587 5584
5661 5665 5670 5674 5676 5679 5680 5680 5681 5682 5683 5684 5683 5683 5682 5681 5678 5672 5669 5664 5662 5657 5654 5653 5649 5643 5638 5633 5628 5621 5616 5611 5605 5599 5594 5589 5584 5580 5576 5572 5567 5564 5561
5646 5650 5655 5659 5663 5667 5669 5670 5670 5670 5671 5671 5672 5671 5672 5668 5666 5662 5658 5654 5648 5643 5639 5637 5631 5626 5621 5614 5608 5604 5598 5591 5585 5578 5571 5565 5560 5556 5552 5547 5542 5539 5534
5634 5638 5643 5646 5649 5652 5655 5656 5658 5659 5660 5660 5660 5659 5658 5654 5651 5647 5643 5638 5634 5629 5624 5621 5615 5609 5602 5594 5590 5583 5578 5572 5564 5557 5549 5541 5535 5530 5523 5518 5514 5510 5504
5620 5625 5629 5633 5637 5640 5643 5645 5647 5648 5648 5649 5649 5644 5643 5641 5637 5633 5628 5622 5618 5613 5607 5603 5598 5591 5584 5574 5569 5563 5560 5552 5545 5537 5526 5517 5511 5502 5493 5486 5481 5474 5467
5607 5613 5618 5623 5626 5630 5632 5635 5636 5636 5636 5638 5636 5634 5631 5628 5623 5618 5613 5608 5603 5597 5590 5585 5578 5571 5564 5556 5548 5543 5537 5531 5524 5512 5502 5492 5482 5472 5458 5451 5443 5434 5428
5596 5603 5609 5614 5618 5621 5623 5625 5626 5627 5626 5625 5623 5621 5617 5612 5609 5604 5598 5592 5586 5578 5570 5565 5560 5553 5544 5536 5529 5522 5513 5506 5500 5486 5474 5467 5447 5443 5427 5419 5408 5402 5398
5589 5596 5602 5607 5611 5614 5616 5617 5616 5617 5615 5613 5610 5607 5604 5598 5595 5589 5583 5576 5569 5561 5554 5548 5542 5532 5526 5515 5507 5497 5488 5477 5467 5453 5438 5439 5419 5412 5403 5398 5389 5384 5379
5584 5590 5595 5599 5603 5606 5607 5606 5607 5606 5605 5601 5597 5594 5590 5585 5580 5574 5567 5561 5554 5545 5538 5530 5521 5511 5500 5490 5479 5470 5459 5449 5437 5423 5406 5410 5402 5399 5393 5384 5373 5365 5359
5582 5587 5589 5593 5596 5596 5598 5599 5597 5595 5594 5590 5586 5583 5577 5570 5564 5559 5554 5547 5538 5528 5519 5507 5496 5485 5475 5463 5451 5442 5430 5421 5415 5408 5393 5392 5387 5382 5376 5367 5356 5345 5337
5581 5584 5586 5587 5589 5591 5592 5590 5588 5586 5584 5581 5576 5570 5565 5559 5552 5546 5537 5529 5520 5510 5498 5486 5472 5460 5449 5437 5427 5421 5416 5410 5403 5398 5383 5380 5370 5358 5358 5346 5338 5330 5325